GW5592 Weather Reports


time (UTC)temp
C
wind
direction
speed
KPH
gust
KPH
rain 1hr
cm
rain 24hr
cm
rain mn
cm
humidity
%
barometer
mb
20260505023028 7 21 0.0 4.8 0.00 0.00 0.00 77 1015.5
20260505022508 7 24 3.2 4.8 0.00 0.00 0.00 77 1015.5
20260505022010 7 12 1.6 4.8 0.00 0.00 0.00 77 1015.5
20260505021525 7 36 1.6 3.2 0.00 0.00 0.00 76 1015.5
20260505021002 7 24 1.6 3.2 0.00 0.00 0.00 76 1015.5
20260505020503 7 42 0.0 3.2 0.00 0.00 0.00 76 1015.5
20260505020011 7 28 0.0 3.2 0.00 0.00 0.00 75 1015.5
20260505015512 7 26 0.0 3.2 0.00 0.00 0.00 76 1015.6
20260505015005 7 26 0.0 3.2 0.00 0.00 0.00 75 1015.6
20260505014512 7 24 1.6 3.2 0.00 0.00 0.00 75 1015.6
20260505014006 7 40 0.0 3.2 0.00 0.00 0.00 74 1015.7
20260505013507 7 26 0.0 3.2 0.00 0.00 0.00 74 1015.7
20260505013021 8 50 0.0 3.2 0.00 0.00 0.00 74 1015.7
20260505012512 8 35 0.0 3.2 0.00 0.00 0.00 73 1015.7
20260505012008 8 42 0.0 3.2 0.00 0.00 0.00 72 1015.7
20260505011529 8 28 0.0 3.2 0.00 0.00 0.00 72 1015.7
20260505011014 8 44 1.6 3.2 0.00 0.00 0.00 73 1015.8
20260505010508 8 34 0.0 3.2 0.00 0.00 0.00 74 1015.8
20260505010024 8 38 0.0 3.2 0.00 0.00 0.00 75 1015.8
20260505005504 7 29 0.0 3.2 0.00 0.00 0.00 74 1015.9
20260505005005 8 29 0.0 3.2 0.00 0.00 0.00 74 1015.9
20260505004508 8 32 0.0 3.2 0.00 0.00 0.00 73 1015.9
20260505004003 8 44 0.0 1.6 0.00 0.00 0.00 73 1016.0
20260505003505 8 44 0.0 3.2 0.00 0.00 0.00 73 1016.0
20260505003018 8 44 0.0 3.2 0.00 0.00 0.00 72 1016.0
20260505002507 8 40 0.0 3.2 0.00 0.00 0.00 72 1016.0
20260505002007 8 15 1.6 3.2 0.00 0.00 0.00 71 1016.1
20260505001521 8 15 0.0 3.2 0.00 0.00 0.00 71 1016.2
20260505001005 8 35 0.0 3.2 0.00 0.00 0.00 72 1016.2
20260505000508 8 35 0.0 3.2 0.00 0.00 0.00 71 1016.2
20260505000029 9 36 0.0 3.2 0.00 0.00 0.00 70 1016.2
20260504235509 9 24 0.0 3.2 0.00 0.00 0.00 69 1016.2
20260504235008 9 42 0.0 3.2 0.00 0.00 0.00 69 1016.2
20260504234507 9 15 1.6 3.2 0.00 0.00 0.00 68 1016.2
20260504234004 9 42 1.6 3.2 0.00 0.00 0.00 69 1016.2
20260504233507 9 39 0.0 3.2 0.00 0.00 0.00 69 1016.2
20260504233014 9 26 1.6 3.2 0.00 0.00 0.00 69 1016.2
20260504232506 10 347 0.0 3.2 0.00 0.00 0.00 67 1016.2
20260504232006 10 38 0.0 3.2 0.00 0.00 0.00 66 1016.3
20260504231518 10 49 0.0 3.2 0.00 0.00 0.00 66 1016.3
20260504231010 10 49 0.0 3.2 0.00 0.00 0.00 65 1016.3
20260504230507 10 49 0.0 3.2 0.00 0.00 0.00 65 1016.4
20260504230023 10 35 0.0 3.2 0.00 0.00 0.00 65 1016.4
20260504225508 10 28 1.6 3.2 0.00 0.00 0.00 66 1016.3
20260504225009 10 29 0.0 4.8 0.00 0.00 0.00 65 1016.3
20260504224525 10 29 0.0 4.8 0.00 0.00 0.00 64 1016.3
20260504224009 11 18 0.0 0.0 0.00 0.00 0.00 67 1016.3
20260504223510 11 129 0.0 0.0 0.00 0.00 0.00 64 1016.2
20260504223011 11 88 0.0 0.0 0.00 0.00 0.00 63 1016.2
20260504222506 12 88 0.0 0.0 0.00 0.00 0.00 62 1016.3
20260504222014 12 88 0.0 0.0 0.00 0.00 0.00 62 1016.3
20260504221519 12 88 0.0 0.0 0.00 0.00 0.00 61 1016.4
20260504221007 11 88 0.0 0.0 0.00 0.00 0.00 62 1016.4
20260504220509 11 38 0.0 0.0 0.00 0.00 0.00 61 1016.4
20260504220022 11 38 0.0 0.0 0.00 0.00 0.00 62 1016.4
20260504215507 11 38 0.0 0.0 0.00 0.00 0.00 62 1016.3
20260504215013 12 17 0.0 0.0 0.00 0.00 0.00 61 1016.3
20260504214523 12 11 0.0 0.0 0.00 0.00 0.00 60 1016.3
20260504214011 12 92 0.0 0.0 0.00 0.00 0.00 59 1016.3
20260504213510 13 96 0.0 0.0 0.00 0.00 0.00 58 1016.4
20260504213045 13 96 0.0 0.0 0.00 0.00 0.00 59 1016.4
20260504212511 13 105 0.0 0.0 0.00 0.00 0.00 57 1016.4
20260504212007 13 105 0.0 0.0 0.00 0.00 0.00 57 1016.4
20260504211516 13 105 0.0 0.0 0.00 0.00 0.00 55 1016.4
20260504211005 13 105 0.0 0.0 0.00 0.00 0.00 54 1016.4
20260504210508 13 47 0.0 0.0 0.00 0.00 0.00 52 1016.4
20260504210018 13 34 0.0 0.0 0.00 0.00 0.00 52 1016.4
20260504205507 14 34 0.0 0.0 0.00 0.00 0.00 51 1016.4
20260504205006 14 34 0.0 0.0 0.00 0.00 0.00 52 1016.3
20260504204522 14 34 0.0 0.0 0.00 0.00 0.00 53 1016.3
20260504204010 14 94 0.0 0.0 0.00 0.00 0.00 53 1016.2
20260504203513 14 94 0.0 0.0 0.00 0.00 0.00 53 1016.1
20260504203024 14 82 0.0 0.0 0.00 0.00 0.00 53 1016.0
20260504202510 14 93 0.0 0.0 0.00 0.00 0.00 53 1016.0
20260504202010 15 68 0.0 1.6 0.00 0.00 0.00 52 1015.9
20260504201532 15 51 0.0 6.4 0.00 0.00 0.00 51 1015.8
20260504201013 15 327 0.0 6.4 0.00 0.00 0.00 51 1015.7
20260504200507 15 352 0.0 6.4 0.00 0.00 0.00 51 1015.7
20260504200016 15 281 0.0 6.4 0.00 0.00 0.00 52 1015.6
20260504195506 15 9 0.0 6.4 0.00 0.00 0.00 52 1015.5
20260504195006 15 318 0.0 6.4 0.00 0.00 0.00 52 1015.4
20260504194521 15 326 1.6 6.4 0.00 0.00 0.00 51 1015.3
20260504194006 16 339 3.2 6.4 0.00 0.00 0.00 52 1015.3
20260504193509 16 314 1.6 8.0 0.00 0.00 0.00 51 1015.2
20260504193024 16 309 3.2 9.7 0.00 0.00 0.00 50 1015.1
20260504192508 16 337 1.6 9.7 0.00 0.00 0.00 50 1015.1
20260504192009 16 312 0.0 3.2 0.00 0.00 0.00 51 1014.9
20260504191525 16 324 1.6 6.4 0.00 0.00 0.00 49 1014.9
20260504191016 17 342 1.6 9.7 0.00 0.00 0.00 49 1014.9
20260504190510 17 318 3.2 9.7 0.00 0.00 0.00 48 1014.9
20260504190027 17 321 3.2 9.7 0.00 0.00 0.00 47 1014.8
20260504185515 17 294 3.2 12.9 0.00 0.00 0.00 47 1014.7
20260504185007 17 302 4.8 12.9 0.00 0.00 0.00 47 1014.6
20260504184518 17 292 4.8 12.9 0.00 0.00 0.00 45 1014.7
20260504184006 18 327 1.6 12.9 0.00 0.00 0.00 44 1014.7
20260504183508 18 294 6.4 16.1 0.00 0.00 0.00 44 1014.6
20260504183024 18 321 4.8 19.3 0.00 0.00 0.00 45 1014.6
20260504182510 18 317 8.0 19.3 0.00 0.00 0.00 43 1014.5
20260504182011 18 296 9.7 17.7 0.00 0.00 0.00 43 1014.4
20260504181523 18 306 12.9 17.7 0.00 0.00 0.00 42 1014.4
20260504181010 19 327 6.4 14.5 0.00 0.00 0.00 41 1014.3
20260504180507 19 264 8.0 16.1 0.00 0.00 0.00 40 1014.3
20260504180010 19 323 6.4 16.1 0.00 0.00 0.00 40 1014.3
20260504175506 19 284 8.0 16.1 0.00 0.00 0.00 41 1014.2
20260504175009 20 271 6.4 14.5 0.00 0.00 0.00 41 1014.2
20260504174516 20 277 6.4 16.1 0.00 0.00 0.00 40 1014.2
20260504174007 20 241 6.4 16.1 0.00 0.00 0.00 39 1014.2
20260504173510 20 306 4.8 12.9 0.00 0.00 0.00 40 1014.3
20260504173031 20 289 8.0 19.3 0.00 0.00 0.00 40 1014.2
20260504172507 20 270 11.3 20.9 0.00 0.00 0.00 40 1014.3
20260504172011 20 311 12.9 19.3 0.00 0.00 0.00 39 1014.3
20260504171526 20 298 6.4 14.5 0.00 0.00 0.00 40 1014.3
20260504171009 20 284 6.4 19.3 0.00 0.00 0.00 40 1014.3
20260504170515 20 290 9.7 19.3 0.00 0.00 0.00 39 1014.3
20260504151013 20 215 8.0 14.5 0.00 0.00 0.00 40 1014.1
20260504150511 21 300 6.4 22.5 0.00 0.00 0.00 39 1014.1
20260504141011 21 230 9.7 17.7 0.00 0.00 0.00 41 1014.4
20260504140506 21 164 11.3 17.7 0.00 0.00 0.00 37 1014.3
20260504130510 21 243 6.4 14.5 0.00 0.00 0.00 40 1014.9
20260504110507 19 283 11.3 17.7 0.00 0.00 0.00 46 1015.8
20260504100505 17 232 8.0 17.7 0.00 0.00 0.00 59 1015.9
20260504082002 14 150 0.0 8.0 0.00 0.00 0.00 74 1015.9
20260504081505 14 192 1.6 8.0 0.00 0.00 0.00 74 1015.9
20260504081004 14 162 3.2 8.0 0.00 0.00 0.00 75 1015.8
20260504080503 14 255 4.8 8.0 0.00 0.00 0.00 75 1015.8
20260504050503 11 247 0.0 0.0 0.00 0.00 0.00 80 1015.0
20260504050004 11 247 0.0 3.2 0.00 0.00 0.00 81 1015.0
20260504045504 11 247 0.0 3.2 0.00 0.00 0.00 82 1015.0
20260504045007 11 319 0.0 0.0 0.00 0.00 0.00 81 1014.9
20260504044525 11 15 0.0 0.0 0.00 0.00 0.00 81 1014.8
20260504044006 11 128 0.0 0.0 0.00 0.00 0.00 80 1014.8
20260504043504 11 145 0.0 0.0 0.00 0.00 0.00 80 1014.7
20260504043020 11 163 0.0 0.0 0.00 0.00 0.00 81 1014.6
20260504042507 11 153 0.0 0.0 0.00 0.00 0.00 81 1014.7
20260504042009 11 38 0.0 0.0 0.00 0.00 0.00 80 1014.6
20260504041522 11 38 0.0 0.0 0.00 0.00 0.00 80 1014.7
20260504041009 11 38 0.0 0.0 0.00 0.00 0.00 81 1014.7
20260504040510 11 38 0.0 0.0 0.00 0.00 0.00 80 1014.8
20260504040026 11 38 0.0 0.0 0.00 0.00 0.00 80 1014.8
20260504035508 11 38 0.0 0.0 0.00 0.00 0.00 80 1014.8
20260504035004 11 38 0.0 0.0 0.00 0.00 0.00 81 1014.9
20260504034507 11 38 0.0 0.0 0.00 0.00 0.00 81 1014.9
20260504034004 11 38 0.0 0.0 0.00 0.00 0.00 80 1014.8
20260504033508 11 38 0.0 1.6 0.00 0.00 0.00 80 1014.8
20260504033013 11 38 0.0 1.6 0.00 0.00 0.00 79 1014.8
20260504032504 11 56 0.0 0.0 0.00 0.00 0.00 78 1014.8
20260504032009 12 168 0.0 0.0 0.00 0.00 0.00 78 1014.9
20260504031520 12 168 0.0 1.6 0.00 0.00 0.00 78 1015.0
20260504031008 12 168 0.0 3.2 0.00 0.00 0.00 79 1014.9
20260504030506 11 167 0.0 1.6 0.00 0.00 0.00 79 1015.0
20260504030023 11 155 0.0 0.0 0.00 0.00 0.00 78 1015.0
20260504025507 12 155 0.0 0.0 0.00 0.00 0.00 78 1015.1
20260504025006 12 144 0.0 0.0 0.00 0.00 0.00 78 1015.0
20260504024524 12 143 0.0 0.0 0.00 0.00 0.00 78 1015.1
20260504024007 11 143 0.0 1.6 0.00 0.00 0.00 78 1015.0
20260504023503 11 143 0.0 1.6 0.00 0.00 0.00 78 1015.1